Stündliche Wetter Bolshie Pleyki

Heute, 17 Januar, Sonntag

Zeit Temperatur Niederschläge Wind Luftdruck Luftfeuchtigkeit
00:00 -20°C° 0 mm 2 m/S 749 mmHg 93%
01:00 -20°C° 0 mm 2 m/S 749 mmHg 94%
02:00 -23°C° 0 mm 3 m/S 749 mmHg 95%
03:00 -23°C° 0 mm 3 m/S 749 mmHg 95%
04:00 -23°C° 0 mm 3 m/S 749 mmHg 95%
05:00 -21°C° 0 mm 2 m/S 749 mmHg 95%
06:00 -21°C° 0 mm 2 m/S 749 mmHg 95%
07:00 -21°C° 0 mm 2 m/S 749 mmHg 94%
08:00 -21°C° 0 mm 2 m/S 750 mmHg 94%
09:00 -21°C° 0 mm 2 m/S 750 mmHg 91%
10:00 -20°C° 0 mm 2 m/S 750 mmHg 89%
11:00 -19°C° 0 mm 2 m/S 751 mmHg 87%
12:00 -18°C° 0 mm 2 m/S 751 mmHg 87%
13:00 -17°C° 0 mm 2 m/S 751 mmHg 88%
14:00 -17°C° 0 mm 2 m/S 751 mmHg 89%
15:00 -18°C° 0 mm 2 m/S 751 mmHg 91%
16:00 -18°C° 0 mm 2 m/S 751 mmHg 93%
17:00 -19°C° 0 mm 2 m/S 751 mmHg 95%
18:00 -20°C° 0 mm 2 m/S 751 mmHg 96%
19:00 -20°C° 0 mm 2 m/S 751 mmHg 96%
20:00 -20°C° 0 mm 2 m/S 751 mmHg 97%
21:00 -18°C° 0 mm 1 m/S 751 mmHg 97%
22:00 -18°C° 0 mm 1 m/S 751 mmHg 97%
23:00 -18°C° 0 mm 1 m/S 751 mmHg 98%

Morgen, 18 Januar, Montag

Zeit Temperatur Niederschläge Wind Luftdruck Luftfeuchtigkeit
00:00 -18°C° 0 mm 1 m/S 751 mmHg 97%
01:00 -18°C° 0 mm 1 m/S 751 mmHg 97%
02:00 -18°C° 0 mm 1 m/S 751 mmHg 97%
03:00 -18°C° 0 mm 1 m/S 751 mmHg 97%
04:00 -18°C° 0 mm 1 m/S 751 mmHg 97%
05:00 -18°C° 0 mm 1 m/S 751 mmHg 98%
06:00 -17°C° 0 mm 1 m/S 751 mmHg 97%
07:00 -17°C° 0 mm 1 m/S 751 mmHg 97%
08:00 -17°C° 0 mm 1 m/S 751 mmHg 97%
09:00 -15°C° 0 mm 1 m/S 751 mmHg 96%
10:00 -14°C° 0 mm 1 m/S 751 mmHg 95%
11:00 -13°C° 0 mm 1 m/S 751 mmHg 93%
12:00 -12°C° 0 mm 1 m/S 751 mmHg 93%
13:00 -11°C° 0 mm 1 m/S 751 mmHg 93%
14:00 -11°C° 0 mm 1 m/S 750 mmHg 92%
15:00 -11°C° 0 mm 1 m/S 750 mmHg 93%
16:00 -12°C° 0 mm 1 m/S 750 mmHg 94%
17:00 -14°C° 0 mm 2 m/S 750 mmHg 95%
18:00 -14°C° 0 mm 2 m/S 750 mmHg 95%
19:00 -15°C° 0 mm 2 m/S 750 mmHg 95%
20:00 -15°C° 0 mm 2 m/S 750 mmHg 95%
21:00 -15°C° 0 mm 2 m/S 750 mmHg 95%
22:00 -15°C° 0 mm 2 m/S 750 mmHg 95%
23:00 -16°C° 0 mm 2 m/S 750 mmHg 95%

übermorgen, 19 Januar, Dienstag

Zeit Temperatur Niederschläge Wind Luftdruck Luftfeuchtigkeit
00:00 -16°C° 0 mm 2 m/S 750 mmHg 94%
01:00 -14°C° 0 mm 1 m/S 750 mmHg 94%
02:00 -14°C° 0 mm 1 m/S 750 mmHg 93%
03:00 -15°C° 0 mm 1 m/S 749 mmHg 93%
04:00 -15°C° 0 mm 1 m/S 749 mmHg 93%
05:00 -16°C° 0 mm 1 m/S 749 mmHg 92%
06:00 -18°C° 0 mm 2 m/S 749 mmHg 92%
07:00 -18°C° 0 mm 2 m/S 749 mmHg 92%
08:00 -19°C° 0 mm 2 m/S 749 mmHg 92%
09:00 -18°C° 0 mm 2 m/S 749 mmHg 91%
10:00 -17°C° 0 mm 2 m/S 749 mmHg 91%
11:00 -16°C° 0 mm 2 m/S 749 mmHg 90%
12:00 -16°C° 0 mm 2 m/S 749 mmHg 90%
13:00 -15°C° 0 mm 2 m/S 749 mmHg 89%
14:00 -14°C° 0 mm 2 m/S 749 mmHg 89%
15:00 -15°C° 0 mm 2 m/S 748 mmHg 90%
16:00 -16°C° 0 mm 2 m/S 748 mmHg 91%
17:00 -17°C° 0 mm 2 m/S 748 mmHg 92%
18:00 -17°C° 0 mm 2 m/S 748 mmHg 93%
19:00 -18°C° 0 mm 2 m/S 748 mmHg 93%
20:00 -18°C° 0 mm 2 m/S 748 mmHg 93%
21:00 -19°C° 0 mm 3 m/S 748 mmHg 92%
22:00 -19°C° 0 mm 3 m/S 748 mmHg 92%
23:00 -19°C° 0 mm 3 m/S 748 mmHg 92%

20 Januar, Mittwoch

Zeit Temperatur Niederschläge Wind Luftdruck Luftfeuchtigkeit
00:00 -19°C° 0 mm 3 m/S 748 mmHg 91%
01:00 -19°C° 0 mm 3 m/S 748 mmHg 91%
02:00 -19°C° 0 mm 3 m/S 748 mmHg 91%
03:00 -19°C° 0 mm 3 m/S 747 mmHg 91%
04:00 -19°C° 0 mm 3 m/S 747 mmHg 90%
05:00 -19°C° 0 mm 3 m/S 747 mmHg 90%
06:00 -20°C° 0 mm 4 m/S 747 mmHg 89%
07:00 -20°C° 0 mm 4 m/S 747 mmHg 89%
08:00 -20°C° 0 mm 4 m/S 747 mmHg 89%
09:00 -19°C° 0 mm 4 m/S 746 mmHg 89%
10:00 -19°C° 0 mm 5 m/S 746 mmHg 88%
11:00 -18°C° 0 mm 5 m/S 746 mmHg 88%
12:00 -17°C° 0 mm 5 m/S 746 mmHg 89%
13:00 -15°C° 0 mm 5 m/S 746 mmHg 90%
14:00 -14°C° 0 mm 5 m/S 745 mmHg 91%
15:00 -14°C° 0 mm 5 m/S 745 mmHg 91%
16:00 -15°C° 0 mm 6 m/S 744 mmHg 92%
17:00 -15°C° 0 mm 6 m/S 744 mmHg 92%
18:00 -14°C° 0.1 mm 6 m/S 744 mmHg 92%
19:00 -12°C° 0.1 mm 6 m/S 743 mmHg 92%
20:00 -12°C° 0.1 mm 7 m/S 743 mmHg 92%
21:00 -11°C° 0.5 mm 6 m/S 742 mmHg 93%
22:00 -10°C° 0.5 mm 6 m/S 742 mmHg 93%
23:00 -10°C° 0.5 mm 6 m/S 741 mmHg 94%

21 Januar, Donnerstag

Zeit Temperatur Niederschläge Wind Luftdruck Luftfeuchtigkeit
00:00 -9°C° 0.9 mm 6 m/S 741 mmHg 95%
01:00 -8°C° 0.9 mm 6 m/S 741 mmHg 95%
02:00 -6°C° 0.9 mm 6 m/S 741 mmHg 96%
03:00 -5°C° 0.3 mm 6 m/S 740 mmHg 96%
04:00 -2°C° 0.3 mm 5 m/S 740 mmHg 97%
05:00 -1°C° 0.3 mm 5 m/S 740 mmHg 98%
06:00 -1°C° 0.1 mm 5 m/S 740 mmHg 97%
07:00 -1°C° 0.1 mm 5 m/S 740 mmHg 97%
08:00 -1°C° 0.1 mm 5 m/S 740 mmHg 96%
09:00 -1°C° 0.1 mm 5 m/S 740 mmHg 96%
10:00 -1°C° 0.1 mm 5 m/S 740 mmHg 96%
11:00 -1°C° 0.1 mm 5 m/S 740 mmHg 96%
12:00 -1°C° 0 mm 5 m/S 740 mmHg 95%
13:00 -1°C° 0 mm 5 m/S 740 mmHg 93%
14:00 -1°C° 0 mm 5 m/S 740 mmHg 92%
15:00 -1°C° 0 mm 5 m/S 740 mmHg 91%
16:00 -1°C° 0 mm 5 m/S 740 mmHg 90%
17:00 -2°C° 0 mm 4 m/S 740 mmHg 89%
18:00 -2°C° 0 mm 4 m/S 740 mmHg 89%
19:00 -2°C° 0 mm 4 m/S 740 mmHg 90%
20:00 -2°C° 0 mm 4 m/S 740 mmHg 90%
21:00 -2°C° 0 mm 4 m/S 740 mmHg 91%
22:00 -2°C° 0 mm 4 m/S 740 mmHg 92%
23:00 -3°C° 0 mm 4 m/S 740 mmHg 92%

22 Januar, Freitag

Zeit Temperatur Niederschläge Wind Luftdruck Luftfeuchtigkeit
00:00 -3°C° 0 mm 4 m/S 740 mmHg 94%
01:00 -2°C° 0 mm 3 m/S 740 mmHg 95%
02:00 -2°C° 0 mm 3 m/S 740 mmHg 96%
03:00 -2°C° 0 mm 3 m/S 740 mmHg 96%
04:00 -1°C° 0 mm 3 m/S 740 mmHg 96%
05:00 -1°C° 0 mm 4 m/S 740 mmHg 96%
06:00 0°C° 0 mm 3 m/S 740 mmHg 96%
07:00 0°C° 0 mm 3 m/S 740 mmHg 95%
08:00 -1°C° 0 mm 3 m/S 739 mmHg 95%
09:00 0°C° 0 mm 3 m/S 739 mmHg 96%
10:00 0°C° 0 mm 3 m/S 739 mmHg 97%
11:00 0°C° 0 mm 3 m/S 739 mmHg 97%
12:00 0°C° 0 mm 3 m/S 739 mmHg 98%
13:00 0°C° 0 mm 3 m/S 739 mmHg 99%
14:00 0°C° 0 mm 3 m/S 739 mmHg 99%
15:00 0°C° 0 mm 3 m/S 739 mmHg 98%
16:00 0°C° 0 mm 3 m/S 740 mmHg 98%
17:00 0°C° 0 mm 3 m/S 740 mmHg 97%
18:00 0°C° 0 mm 3 m/S 740 mmHg 97%
19:00 0°C° 0 mm 3 m/S 740 mmHg 97%
20:00 0°C° 0 mm 3 m/S 740 mmHg 97%
21:00 -1°C° 0 mm 3 m/S 739 mmHg 97%
22:00 -1°C° 0 mm 3 m/S 739 mmHg 96%
23:00 -1°C° 0 mm 3 m/S 739 mmHg 96%
Mehr zeigen

Wir brauchen deine Erlaubnis

Meteoprog und unser Service Anbieter werden persönliche Daten aufbewahren, so wie Cookies, Geräte Bezeichnung oder ähnliche Technologien von deinem Gerät und Prozess, so wie Persönliche Daten Inhalte und Werbungen, genauso wie social Media und den Verkehr zu analysieren.

  • Aufbewahrung und/oder Zugang zu deiner Geräte Informationen.

    Cookies, Geräte Bezeichnung oder andere Informationen, können aufbewahrt oder Zugang zu deinem Gerät erhalten, für den Grund, der oben angegeben wird.

  • Personalisierte Werbung und Inhalte, Messungen, Einblick in das Publikum und Produkt Entwicklung.

    Werbungen und Inhalte können personalisiert werden, basierend auf ein Profil. Mehr Daten können besser personalisierte Werbungen und Inhalte hinzufügen. Werbung und Inhalte können gezeigt und gemessen werden. Einblicke über das Publikum, welche die Werbung gesehen haben und den Inhalt, können abgeleitet werden. So wie Daten können genutzt werden, um es zu verbessern oder die Benutzer Erfahrung zu verbessern das System und die Software.

Wenn du “Ich stimme zu” klickst, erlaubst du uns, die Cookies zu benutzen die Geräte Bezeichnung, den Web oder ähnliche Technologien zu benutzen. Deine Settings, können in deinem Gerät bei deinem Browser geändert werden.

Für den bestimmten Zweck, berechtigten Interessen beruhen darauf, mehr als auf den Inhalt. Du kannst mehr darüber in unseren Privaten und Cookie Politik lesen.